Regional Weather Roundup
Issued by NWS Goodland, KS

Home | Current Version | Previous Version | Graphics & Text | Print | Product List | Glossary On
Versions: 1 2 3 4 5 6 7 8 9 10 11 12 13 14 15 16 17 18 19 20 21 22 23 24 25 26 27 28 29 30 31 32 33 34 35 36 37 38 39 40 41 42 43 44 45 46 47 48 49 50
000
ASUS43 KGLD 221259
RWRGLD

GOODLAND FORECAST AREA HOURLY WEATHER ROUNDUP
NATIONAL WEATHER SERVICE GOODLAND KS
700 AM MDT FRI SEP 22 2017

...OFFICIAL OBSERVATIONS...

CITY           SKY/WX    TMP DP  RH WIND       PRES   REMARKS
GOODLAND KS    CLEAR     63  54  72 S12       29.78R
HILL CITY KS   CLEAR     76  65  68 S16G24    29.78S
IMPERIAL NEB   CLEAR     61  48  62 SW7       29.74R
MCCOOK NEB     LGT RAIN  74  62  66 S21G31    29.71S
AKRON CO       CLOUDY    48  35  60 N10       29.77R
BURLINGTON CO  CLEAR     58  44  60 S16       29.79R
LIMON CO       CLEAR     49  30  48 NE5       29.83R
$$

...UNOFFICIAL OBSERVATIONS...

CITY           SKY/WX    TMP DP  RH WIND       PRES   REMARKS
NORTON KS      CLEAR     73  57  56 S17G23    29.76S
SHARON SPRINGS   N/A     67  58  72 S20G29      N/A
KIT CARSON CO    N/A     56  43  61 CALM        N/A
YUMA CO        FAIR      50  30  46 NW3       29.76R
$$




USA.gov is the U.S. government's official web portal to all federal, state and local government web resources and services.